Regional Weather Roundup
Issued by NWS Sioux Falls, SD

Home | Current Version | Previous Version | Graphics & Text | Print | Product List | Glossary On
Versions: 1 2 3 4 5 6 7 8 9 10 11 12 13 14 15 16 17 18 19 20 21 22 23 24 25 26 27 28 29 30 31 32 33 34 35 36 37 38 39 40 41 42 43 44 45 46 47 48 49 50
000
ASUS43 KFSD 310110
RWRFSD

WEATHER ROUNDUP FOR SE SOUTH DAKOTA/SW MINNESOTA/NW IOWA
NATIONAL WEATHER SERVICE SIOUX FALLS SD
700 PM CST FRI JAN 30 2015

NOTE: "FAIR" INDICATES FEW OR NO CLOUDS BELOW 12,000 FEET WITH NO
SIGNIFICANT WEATHER AND OR OBSTRUCTIONS TO VISIBILITY.


SDZ038>040-050-052>070-310200-
SOUTHEAST SOUTH DAKOTA

CITY           SKY/WX    TMP DP  RH WIND       PRES   REMARKS
CHAMBERLAIN    PTCLDY    35  25  67 CALM      30.12S
HURON          CLEAR     31  26  82 SE3       30.14R
MADISON        FAIR      32  32 100 S10       30.15S WCI  24
MITCHELL       PTCLDY    37  28  70 S10       30.15S
SIOUX FALLS    PTCLDY    33  28  81 S9        30.18F WCI  25
WINNER         FAIR      41  25  53 N6        30.13R
YANKTON        CLEAR     37  25  60 S7        30.20F
$$

MNZ071-072-080-081-089-090-097-098-310200-
SOUTHWEST MINNESOTA

CITY           SKY/WX    TMP DP  RH WIND       PRES   REMARKS
FAIRMONT       CLEAR     28  21  74 S15       30.20F WCI  17
JACKSON        CLEAR     32  27  80 S14       30.21F WCI  22
LUVERNE        CLEAR     32  28  86 S8        30.20F WCI  25
MARSHALL       CLEAR     32  25  74 SW12      30.18F WCI  23
MONTEVIDEO     CLEAR     30  28  93 SW10      30.17F WCI  21
PIPESTONE      CLEAR     32  28  86 S12       30.16S WCI  23
REDWOOD FALLS  CLEAR     30  25  81 S8        30.19F WCI  22
TRACY          CLEAR     32  28  84 SW10G17   30.17R WCI  24
WINDOM         CLEAR     30  27  86 S17G23    30.17F WCI  18
WORTHINGTON    CLEAR     30  25  80 SW15      30.20R WCI  19
$$

IAZ001>003-012>014-020>022-031-032-NEZ013-014-SDZ071-310200-
NORTHWEST IOWA

CITY           SKY/WX    TMP DP  RH WIND       PRES   REMARKS
CHEROKEE       CLEAR     31  26  81 S9        30.24F WCI  23
DENISON        CLEAR     30  25  80 S15G23    30.26F WCI  19
ESTHERVILLE    CLEAR     29  24  82 S14       30.22F WCI  18
LE MARS        CLEAR     32  27  80 MISG      30.22F
ORANGE CITY    CLEAR     32  27  80 S8        30.21S WCI  25
SHELDON        CLEAR     32  27  80 S13       30.21S WCI  22
SIOUX CITY     CLEAR     33  26  75 SE7       30.25F WCI  27
SPENCER        CLEAR     31  25  78 S9        30.24S WCI  23
STORM LAKE     FAIR      30  25  80 S15       30.24F WCI  19
$$

ABBREVIATIONS USED IN REMARKS
   TC - TEMPERATURE IN CELSIUS
  WCI - WIND CHILL INDEX
   HX - HEAT INDEX
  VSB - VISIBILITY




USA.gov is the U.S. government's official web portal to all federal, state and local government web resources and services.